Time,TemperatureF,DewpointF,PressureIn,WindDirection,WindDirectionDegrees,WindSpeedMPH,WindSpeedGustMPH,Humidity,HourlyPrecipIn,Conditions,Clouds,dailyrainin,SoftwareType,DateUTC
2013-03-03 00:04:00,19.9,12.0,30.08,North,349,0.0,1.0,71,0.00,,,0.00,Wunderground v.1.15,2013-03-03 06:04:00,
2013-03-03 00:10:00,19.9,11.7,30.08,SW,217,0.0,1.0,70,0.00,,,0.00,Wunderground v.1.15,2013-03-03 06:10:00,
2013-03-03 00:15:00,20.0,12.4,30.08,SW,217,0.0,1.0,72,0.00,,,0.00,Wunderground v.1.15,2013-03-03 06:15:00,
2013-03-03 00:20:00,20.1,12.5,30.08,SW,217,0.0,1.0,72,0.00,,,0.00,Wunderground v.1.15,2013-03-03 06:20:00,
2013-03-03 00:25:00,20.0,12.7,30.07,SW,215,0.0,1.0,73,0.00,,,0.00,Wunderground v.1.15,2013-03-03 06:25:00,
2013-03-03 00:30:00,20.0,12.4,30.07,SW,217,0.0,1.0,72,0.00,,,0.00,Wunderground v.1.15,2013-03-03 06:30:00,
2013-03-03 00:35:00,19.9,12.3,30.07,SW,215,0.0,1.0,72,0.00,,,0.00,Wunderground v.1.15,2013-03-03 06:35:00,
2013-03-03 00:41:00,19.9,12.3,30.07,SW,215,0.0,1.0,72,0.00,,,0.00,Wunderground v.1.15,2013-03-03 06:41:00,
2013-03-03 00:46:00,20.0,12.1,30.06,SW,215,0.0,1.0,71,0.00,,,0.00,Wunderground v.1.15,2013-03-03 06:46:00,
2013-03-03 00:51:00,20.1,12.2,30.06,SE,145,0.0,1.0,71,0.00,,,0.00,Wunderground v.1.15,2013-03-03 06:51:00,
2013-03-03 00:56:00,20.1,12.8,30.06,SE,145,0.0,1.0,73,0.00,,,0.00,Wunderground v.1.15,2013-03-03 06:56:00,
2013-03-03 01:01:00,20.1,12.5,30.06,SE,145,0.0,1.0,72,0.00,,,0.00,Wunderground v.1.15,2013-03-03 07:01:00,
2013-03-03 01:07:00,20.1,12.5,30.05,SE,145,0.0,1.0,72,0.00,,,0.00,Wunderground v.1.15,2013-03-03 07:07:00,
2013-03-03 01:12:00,20.0,12.4,30.06,SE,145,0.0,1.0,72,0.00,,,0.00,Wunderground v.1.15,2013-03-03 07:12:00,
2013-03-03 01:17:00,20.0,12.7,30.05,ESE,104,0.0,1.0,73,0.00,,,0.00,Wunderground v.1.15,2013-03-03 07:17:00,
2013-03-03 01:22:00,20.0,12.1,30.06,NE,35,0.0,1.0,71,0.00,,,0.00,Wunderground v.1.15,2013-03-03 07:22:00,
2013-03-03 01:27:00,20.1,12.5,30.05,ENE,65,0.0,1.0,72,0.00,,,0.00,Wunderground v.1.15,2013-03-03 07:27:00,
2013-03-03 01:33:00,20.0,11.8,30.05,ENE,77,0.0,1.0,70,0.00,,,0.00,Wunderground v.1.15,2013-03-03 07:33:00,
2013-03-03 01:38:00,20.0,12.1,30.05,ENE,78,0.0,1.0,71,0.00,,,0.00,Wunderground v.1.15,2013-03-03 07:38:00,
2013-03-03 01:43:00,20.0,11.5,30.05,ENE,77,0.0,1.0,69,0.00,,,0.00,Wunderground v.1.15,2013-03-03 07:43:00,
2013-03-03 01:48:00,20.0,11.1,30.05,ENE,76,0.0,1.0,68,0.00,,,0.00,Wunderground v.1.15,2013-03-03 07:48:00,
2013-03-03 01:53:00,20.0,10.5,30.05,ENE,77,0.0,1.0,66,0.00,,,0.00,Wunderground v.1.15,2013-03-03 07:53:00,
2013-03-03 01:58:00,19.8,10.9,30.05,ENE,76,0.0,1.0,68,0.00,,,0.00,Wunderground v.1.15,2013-03-03 07:58:00,
2013-03-03 02:03:00,19.5,10.6,30.05,ENE,76,0.0,1.0,68,0.00,,,0.00,Wunderground v.1.15,2013-03-03 08:03:00,
2013-03-03 02:09:00,19.4,10.6,30.05,ENE,76,0.0,1.0,68,0.00,,,0.00,Wunderground v.1.15,2013-03-03 08:09:00,
2013-03-03 02:14:00,19.1,10.6,30.05,ENE,77,0.0,1.0,69,0.00,,,0.00,Wunderground v.1.15,2013-03-03 08:14:00,
2013-03-03 02:19:00,18.9,10.4,30.04,ENE,77,0.0,1.0,69,0.00,,,0.00,Wunderground v.1.15,2013-03-03 08:19:00,
2013-03-03 02:24:00,18.9,9.7,30.05,ENE,76,0.0,1.0,67,0.00,,,0.00,Wunderground v.1.15,2013-03-03 08:24:00,
2013-03-03 02:29:00,19.0,9.8,30.05,ENE,76,0.0,1.0,67,0.00,,,0.00,Wunderground v.1.15,2013-03-03 08:29:00,
2013-03-03 02:34:00,19.0,9.8,30.04,ENE,76,0.0,1.0,67,0.00,,,0.00,Wunderground v.1.15,2013-03-03 08:34:00,
2013-03-03 02:39:00,19.1,9.9,30.04,ENE,76,0.0,1.0,67,0.00,,,0.00,Wunderground v.1.15,2013-03-03 08:39:00,
2013-03-03 02:44:00,19.2,10.0,30.04,ENE,77,0.0,1.0,67,0.00,,,0.00,Wunderground v.1.15,2013-03-03 08:44:00,
2013-03-03 02:50:00,19.3,10.5,30.04,ENE,76,0.0,1.0,68,0.00,,,0.00,Wunderground v.1.15,2013-03-03 08:50:00,
2013-03-03 02:55:00,19.5,10.6,30.04,ENE,76,0.0,1.0,68,0.00,,,0.00,Wunderground v.1.15,2013-03-03 08:55:00,
2013-03-03 03:00:00,19.6,11.4,30.03,ENE,76,0.0,1.0,70,0.00,,,0.00,Wunderground v.1.15,2013-03-03 09:00:00,
2013-03-03 03:05:00,19.6,11.4,30.04,ENE,76,0.0,1.0,70,0.00,,,0.00,Wunderground v.1.15,2013-03-03 09:05:00,
2013-03-03 03:10:00,19.7,11.5,30.03,ENE,76,0.0,1.0,70,0.00,,,0.00,Wunderground v.1.15,2013-03-03 09:10:00,
2013-03-03 03:16:00,19.8,11.3,30.03,SW,235,0.0,1.0,69,0.00,,,0.00,Wunderground v.1.15,2013-03-03 09:16:00,
2013-03-03 03:21:00,19.8,11.3,30.03,SW,235,0.0,1.0,69,0.00,,,0.00,Wunderground v.1.15,2013-03-03 09:21:00,
2013-03-03 03:26:00,19.8,11.9,30.03,SW,235,0.0,1.0,71,0.00,,,0.00,Wunderground v.1.15,2013-03-03 09:26:00,
2013-03-03 03:31:00,19.7,11.8,30.03,SW,234,0.0,1.0,71,0.00,,,0.00,Wunderground v.1.15,2013-03-03 09:31:00,
2013-03-03 03:36:00,19.6,12.0,30.03,SW,235,0.0,1.0,72,0.00,,,0.00,Wunderground v.1.15,2013-03-03 09:36:00,
2013-03-03 03:41:00,19.5,12.3,30.03,SW,235,0.0,1.0,73,0.00,,,0.00,Wunderground v.1.15,2013-03-03 09:41:00,
2013-03-03 03:46:00,19.5,11.9,30.03,SW,235,0.0,1.0,72,0.00,,,0.00,Wunderground v.1.15,2013-03-03 09:46:00,
2013-03-03 03:51:00,19.6,12.0,30.03,SW,235,0.0,1.0,72,0.00,,,0.00,Wunderground v.1.15,2013-03-03 09:51:00,
2013-03-03 03:56:00,19.6,12.0,30.03,SW,235,0.0,1.0,72,0.00,,,0.00,Wunderground v.1.15,2013-03-03 09:56:00,
2013-03-03 04:01:00,19.6,12.0,30.03,SW,235,0.0,1.0,72,0.00,,,0.00,Wunderground v.1.15,2013-03-03 10:01:00,
2013-03-03 04:06:00,19.6,11.7,30.02,SW,235,0.0,1.0,71,0.00,,,0.00,Wunderground v.1.15,2013-03-03 10:06:00,
2013-03-03 04:11:00,19.5,11.9,30.02,SW,235,0.0,1.0,72,0.00,,,0.00,Wunderground v.1.15,2013-03-03 10:11:00,
2013-03-03 04:17:00,19.4,12.2,30.02,SW,236,0.0,1.0,73,0.00,,,0.00,Wunderground v.1.15,2013-03-03 10:17:00,
2013-03-03 04:22:00,19.5,12.3,30.02,WSW,256,0.0,1.0,73,0.00,,,0.00,Wunderground v.1.15,2013-03-03 10:22:00,
2013-03-03 04:27:00,19.2,12.3,30.02,East,82,0.0,1.0,74,0.00,,,0.00,Wunderground v.1.15,2013-03-03 10:27:00,
2013-03-03 04:33:00,19.0,12.1,30.01,East,80,0.0,1.0,74,0.00,,,0.00,Wunderground v.1.15,2013-03-03 10:33:00,
2013-03-03 04:38:00,18.8,11.9,30.01,ENE,59,0.0,1.0,74,0.00,,,0.00,Wunderground v.1.15,2013-03-03 10:38:00,
2013-03-03 04:44:00,18.7,11.5,30.01,ENE,67,0.0,1.0,73,0.00,,,0.00,Wunderground v.1.15,2013-03-03 10:44:00,
2013-03-03 04:49:00,18.5,11.3,30.01,ENE,68,0.0,1.0,73,0.00,,,0.00,Wunderground v.1.15,2013-03-03 10:49:00,
2013-03-03 04:54:00,18.4,11.2,30.01,ENE,76,0.0,1.0,73,0.00,,,0.00,Wunderground v.1.15,2013-03-03 10:54:00,
2013-03-03 04:59:00,18.5,11.0,30.01,ENE,68,0.0,1.0,72,0.00,,,0.00,Wunderground v.1.15,2013-03-03 10:59:00,
2013-03-03 05:04:00,18.5,11.0,30.01,NE,41,0.0,1.0,72,0.00,,,0.00,Wunderground v.1.15,2013-03-03 11:04:00,
2013-03-03 05:09:00,18.4,10.9,30.01,East,91,0.0,1.0,72,0.00,,,0.00,Wunderground v.1.15,2013-03-03 11:09:00,
2013-03-03 05:15:00,18.3,10.8,30.01,East,91,0.0,1.0,72,0.00,,,0.00,Wunderground v.1.15,2013-03-03 11:15:00,
2013-03-03 05:20:00,18.1,10.6,30.01,East,90,0.0,1.0,72,0.00,,,0.00,Wunderground v.1.15,2013-03-03 11:20:00,
2013-03-03 05:25:00,17.9,10.1,30.02,East,91,0.0,1.0,71,0.00,,,0.00,Wunderground v.1.15,2013-03-03 11:25:00,
2013-03-03 05:30:00,17.6,10.4,30.02,ENE,60,0.0,1.0,73,0.00,,,0.00,Wunderground v.1.15,2013-03-03 11:30:00,
2013-03-03 05:35:00,17.1,10.2,30.02,ENE,60,0.0,1.0,74,0.00,,,0.00,Wunderground v.1.15,2013-03-03 11:35:00,
2013-03-03 05:40:00,16.8,9.9,30.02,East,83,0.0,1.0,74,0.00,,,0.00,Wunderground v.1.15,2013-03-03 11:40:00,
2013-03-03 05:46:00,16.5,9.7,30.02,East,84,0.0,1.0,74,0.00,,,0.00,Wunderground v.1.15,2013-03-03 11:46:00,
2013-03-03 05:51:00,16.3,9.5,30.02,East,83,0.0,1.0,74,0.00,,,0.00,Wunderground v.1.15,2013-03-03 11:51:00,
2013-03-03 05:56:00,16.1,9.6,30.02,ENE,73,0.0,1.0,75,0.00,,,0.00,Wunderground v.1.15,2013-03-03 11:56:00,
2013-03-03 06:02:00,15.8,9.6,30.02,ENE,78,0.0,1.0,76,0.00,,,0.00,Wunderground v.1.15,2013-03-03 12:02:00,
2013-03-03 06:07:00,15.5,9.3,30.02,ENE,76,0.0,1.0,76,0.00,,,0.00,Wunderground v.1.15,2013-03-03 12:07:00,
2013-03-03 06:12:00,15.4,9.5,30.02,ENE,60,1.0,1.0,77,0.00,,,0.00,Wunderground v.1.15,2013-03-03 12:12:00,
2013-03-03 06:17:00,15.5,9.6,30.01,NE,34,1.0,1.0,77,0.00,,,0.00,Wunderground v.1.15,2013-03-03 12:17:00,
2013-03-03 06:22:00,15.6,9.4,30.02,NE,43,1.0,1.0,76,0.00,,,0.00,Wunderground v.1.15,2013-03-03 12:22:00,
2013-03-03 06:27:00,15.8,9.6,30.02,ENE,63,1.0,1.0,76,0.00,,,0.00,Wunderground v.1.15,2013-03-03 12:27:00,
2013-03-03 06:32:00,15.6,9.4,30.02,East,88,0.0,1.0,76,0.00,,,0.00,Wunderground v.1.15,2013-03-03 12:32:00,
2013-03-03 06:37:00,15.4,9.2,30.02,East,85,0.0,1.0,76,0.00,,,0.00,Wunderground v.1.15,2013-03-03 12:37:00,
2013-03-03 06:42:00,15.4,9.2,30.02,East,80,0.0,1.0,76,0.00,,,0.00,Wunderground v.1.15,2013-03-03 12:42:00,
2013-03-03 06:48:00,15.2,9.3,30.02,East,81,0.0,1.0,77,0.00,,,0.00,Wunderground v.1.15,2013-03-03 12:48:00,
2013-03-03 06:53:00,15.3,9.4,30.02,East,81,0.0,1.0,77,0.00,,,0.00,Wunderground v.1.15,2013-03-03 12:53:00,
2013-03-03 06:58:00,15.3,9.1,30.02,East,80,0.0,1.0,76,0.00,,,0.00,Wunderground v.1.15,2013-03-03 12:58:00,
2013-03-03 07:03:00,15.2,9.3,30.02,ENE,73,0.0,1.0,77,0.00,,,0.00,Wunderground v.1.15,2013-03-03 13:03:00,
2013-03-03 07:08:00,15.3,9.4,30.02,ENE,73,1.0,1.0,77,0.00,,,0.00,Wunderground v.1.15,2013-03-03 13:08:00,
2013-03-03 07:13:00,15.6,9.7,30.02,East,79,1.0,1.0,77,0.00,,,0.00,Wunderground v.1.15,2013-03-03 13:13:00,
2013-03-03 07:18:00,16.0,9.8,30.02,NE,56,0.0,1.0,76,0.00,,,0.00,Wunderground v.1.15,2013-03-03 13:18:00,
2013-03-03 07:24:00,16.3,10.1,30.02,NE,44,0.0,1.0,76,0.00,,,0.00,Wunderground v.1.15,2013-03-03 13:24:00,
2013-03-03 07:29:00,16.6,10.1,30.02,NNE,23,0.0,1.0,75,0.00,,,0.00,Wunderground v.1.15,2013-03-03 13:29:00,
2013-03-03 07:34:00,17.0,10.1,30.02,NE,44,1.0,2.0,74,0.00,,,0.00,Wunderground v.1.15,2013-03-03 13:34:00,
2013-03-03 07:39:00,17.4,10.2,30.02,ENE,57,1.0,2.0,73,0.00,,,0.00,Wunderground v.1.15,2013-03-03 13:39:00,
2013-03-03 07:44:00,17.8,10.6,30.02,ENE,63,1.0,1.0,73,0.00,,,0.00,Wunderground v.1.15,2013-03-03 13:44:00,
2013-03-03 07:50:00,18.2,10.7,30.02,ESE,120,0.0,1.0,72,0.00,,,0.00,Wunderground v.1.15,2013-03-03 13:50:00,
2013-03-03 07:55:00,18.4,10.9,30.02,East,90,0.0,1.0,72,0.00,,,0.00,Wunderground v.1.15,2013-03-03 13:55:00,
2013-03-03 08:00:00,18.7,11.2,30.02,NE,35,0.0,1.0,72,0.00,,,0.00,Wunderground v.1.15,2013-03-03 14:00:00,
2013-03-03 08:05:00,19.1,11.2,30.02,ENE,71,0.0,2.0,71,0.00,,,0.00,Wunderground v.1.15,2013-03-03 14:05:00,
2013-03-03 08:10:00,19.4,11.2,30.02,ENE,61,0.0,1.0,70,0.00,,,0.00,Wunderground v.1.15,2013-03-03 14:10:00,
2013-03-03 08:16:00,19.7,11.2,30.01,East,98,0.0,2.0,69,0.00,,,0.00,Wunderground v.1.15,2013-03-03 14:16:00,
2013-03-03 08:21:00,20.1,11.6,30.02,East,96,0.0,1.0,69,0.00,,,0.00,Wunderground v.1.15,2013-03-03 14:21:00,
2013-03-03 08:26:00,20.4,11.5,30.02,ENE,75,0.0,1.0,68,0.00,,,0.00,Wunderground v.1.15,2013-03-03 14:26:00,
2013-03-03 08:31:00,20.7,11.5,30.02,East,92,0.0,2.0,67,0.00,,,0.00,Wunderground v.1.15,2013-03-03 14:31:00,
2013-03-03 08:36:00,21.0,11.8,30.02,SE,142,1.0,2.0,67,0.00,,,0.00,Wunderground v.1.15,2013-03-03 14:36:00,
2013-03-03 08:42:00,21.3,11.7,30.02,SE,142,1.0,1.0,66,0.00,,,0.00,Wunderground v.1.15,2013-03-03 14:42:00,
2013-03-03 08:47:00,21.7,11.7,30.01,East,94,1.0,2.0,65,0.00,,,0.00,Wunderground v.1.15,2013-03-03 14:47:00,
2013-03-03 08:52:00,22.1,11.8,30.01,SE,125,1.0,1.0,64,0.00,,,0.00,Wunderground v.1.15,2013-03-03 14:52:00,
2013-03-03 08:57:00,22.6,11.9,30.01,East,93,0.0,1.0,63,0.00,,,0.00,Wunderground v.1.15,2013-03-03 14:57:00,
2013-03-03 09:02:00,23.1,12.4,30.01,ESE,119,0.0,1.0,63,0.00,,,0.00,Wunderground v.1.15,2013-03-03 15:02:00,
2013-03-03 09:08:00,23.4,12.3,30.01,NW,321,1.0,2.0,62,0.00,,,0.00,Wunderground v.1.15,2013-03-03 15:08:00,
2013-03-03 09:13:00,23.5,12.4,30.01,West,277,1.0,2.0,62,0.00,,,0.00,Wunderground v.1.15,2013-03-03 15:13:00,
2013-03-03 09:18:00,23.9,12.8,30.01,SE,131,1.0,2.0,62,0.00,,,0.00,Wunderground v.1.15,2013-03-03 15:18:00,
2013-03-03 09:23:00,24.4,12.5,30.00,West,269,1.0,2.0,60,0.00,,,0.00,Wunderground v.1.15,2013-03-03 15:23:00,
2013-03-03 09:28:00,24.7,13.1,30.00,NE,50,1.0,3.0,61,0.00,,,0.00,Wunderground v.1.15,2013-03-03 15:28:00,
2013-03-03 09:34:00,24.9,11.8,30.00,East,93,1.0,2.0,57,0.00,,,0.00,Wunderground v.1.15,2013-03-03 15:34:00,
2013-03-03 09:39:00,25.0,11.9,30.00,West,269,1.0,3.0,57,0.00,,,0.00,Wunderground v.1.15,2013-03-03 15:39:00,
2013-03-03 09:44:00,25.3,12.2,30.00,NE,56,1.0,3.0,57,0.00,,,0.00,Wunderground v.1.15,2013-03-03 15:44:00,
2013-03-03 09:49:00,25.2,12.1,30.00,ESE,105,2.0,4.0,57,0.00,,,0.00,Wunderground v.1.15,2013-03-03 15:49:00,
2013-03-03 09:54:00,25.4,12.3,29.99,NE,35,2.0,2.0,57,0.00,,,0.00,Wunderground v.1.15,2013-03-03 15:54:00,
2013-03-03 10:00:00,25.7,12.9,29.99,NNE,28,2.0,2.0,58,0.00,,,0.00,Wunderground v.1.15,2013-03-03 16:00:00,
2013-03-03 10:05:00,25.9,12.7,29.99,ENE,77,2.0,4.0,57,0.00,,,0.00,Wunderground v.1.15,2013-03-03 16:05:00,
2013-03-03 10:10:00,26.2,12.6,30.00,NNW,331,2.0,2.0,56,0.00,,,0.00,Wunderground v.1.15,2013-03-03 16:10:00,
2013-03-03 10:15:00,26.6,12.6,30.00,SW,215,1.0,2.0,55,0.00,,,0.00,Wunderground v.1.15,2013-03-03 16:15:00,
2013-03-03 10:20:00,27.0,13.0,30.00,ESE,122,1.0,2.0,55,0.00,,,0.00,Wunderground v.1.15,2013-03-03 16:20:00,
2013-03-03 10:26:00,27.0,12.5,29.99,ENE,65,2.0,4.0,54,0.00,,,0.00,Wunderground v.1.15,2013-03-03 16:26:00,
2013-03-03 10:31:00,27.2,12.3,29.99,North,5,2.0,2.0,53,0.00,,,0.00,Wunderground v.1.15,2013-03-03 16:31:00,
2013-03-03 10:36:00,27.3,12.8,30.00,ENE,58,2.0,2.0,54,0.00,,,0.00,Wunderground v.1.15,2013-03-03 16:36:00,
2013-03-03 10:41:00,27.7,13.6,29.99,East,98,2.0,2.0,55,0.00,,,0.00,Wunderground v.1.15,2013-03-03 16:41:00,
2013-03-03 10:46:00,27.8,13.3,30.00,ENE,60,2.0,5.0,54,0.00,,,0.00,Wunderground v.1.15,2013-03-03 16:46:00,
2013-03-03 10:52:00,27.6,13.1,30.00,SSW,210,3.0,3.0,54,0.00,,,0.00,Wunderground v.1.15,2013-03-03 16:52:00,
2013-03-03 10:57:00,27.5,13.0,29.99,ESE,110,2.0,4.0,54,0.00,,,0.00,Wunderground v.1.15,2013-03-03 16:57:00,
2013-03-03 11:02:00,27.4,12.9,29.99,East,93,2.0,3.0,54,0.00,,,0.00,Wunderground v.1.15,2013-03-03 17:02:00,
2013-03-03 11:07:00,27.8,14.1,29.99,East,84,1.0,3.0,56,0.00,,,0.00,Wunderground v.1.15,2013-03-03 17:07:00,
2013-03-03 11:12:00,28.1,14.0,29.99,NE,53,2.0,3.0,55,0.00,,,0.00,Wunderground v.1.15,2013-03-03 17:12:00,
2013-03-03 11:18:00,28.7,14.6,29.99,ESE,110,2.0,3.0,55,0.00,,,0.00,Wunderground v.1.15,2013-03-03 17:18:00,
2013-03-03 11:23:00,29.0,14.0,29.99,ENE,58,1.0,2.0,53,0.00,,,0.00,Wunderground v.1.15,2013-03-03 17:23:00,
2013-03-03 11:28:00,29.4,14.4,29.99,NNE,29,1.0,4.0,53,0.00,,,0.00,Wunderground v.1.15,2013-03-03 17:28:00,
2013-03-03 11:33:00,29.4,13.5,29.98,NE,46,2.0,3.0,51,0.00,,,0.00,Wunderground v.1.15,2013-03-03 17:33:00,
2013-03-03 11:38:00,29.2,13.3,29.98,East,79,3.0,4.0,51,0.00,,,0.00,Wunderground v.1.15,2013-03-03 17:38:00,
2013-03-03 11:44:00,29.0,12.2,29.98,East,86,3.0,5.0,49,0.00,,,0.00,Wunderground v.1.15,2013-03-03 17:44:00,
2013-03-03 11:49:00,29.2,12.4,29.98,NE,56,3.0,5.0,49,0.00,,,0.00,Wunderground v.1.15,2013-03-03 17:49:00,
2013-03-03 11:54:00,29.3,12.0,29.98,East,82,3.0,5.0,48,0.00,,,0.00,Wunderground v.1.15,2013-03-03 17:54:00,
2013-03-03 11:59:00,29.6,12.8,29.97,SSE,151,3.0,5.0,49,0.00,,,0.00,Wunderground v.1.15,2013-03-03 17:59:00,
2013-03-03 12:04:00,29.7,12.4,29.97,NNE,29,3.0,7.0,48,0.00,,,0.00,Wunderground v.1.15,2013-03-03 18:04:00,
2013-03-03 12:10:00,29.7,11.9,29.97,ENE,60,3.0,3.0,47,0.00,,,0.00,Wunderground v.1.15,2013-03-03 18:10:00,
2013-03-03 12:15:00,29.8,12.0,29.97,ENE,78,3.0,5.0,47,0.00,,,0.00,Wunderground v.1.15,2013-03-03 18:15:00,
2013-03-03 12:20:00,30.0,12.2,29.97,ENE,71,3.0,3.0,47,0.00,,,0.00,Wunderground v.1.15,2013-03-03 18:20:00,
2013-03-03 12:25:00,30.4,12.5,29.97,ENE,77,3.0,3.0,47,0.00,,,0.00,Wunderground v.1.15,2013-03-03 18:25:00,
2013-03-03 12:30:00,31.0,13.6,29.96,ESE,104,2.0,2.0,48,0.00,,,0.00,Wunderground v.1.15,2013-03-03 18:30:00,
2013-03-03 12:36:00,32.0,14.0,29.96,ESE,105,1.0,3.0,47,0.00,,,0.00,Wunderground v.1.15,2013-03-03 18:36:00,
2013-03-03 12:41:00,31.8,12.8,29.96,East,100,2.0,3.0,45,0.00,,,0.00,Wunderground v.1.15,2013-03-03 18:41:00,
2013-03-03 12:46:00,31.6,13.7,29.96,ESE,115,2.0,3.0,47,0.00,,,0.00,Wunderground v.1.15,2013-03-03 18:46:00,
2013-03-03 12:51:00,31.9,13.4,29.95,ENE,78,1.0,1.0,46,0.00,,,0.00,Wunderground v.1.15,2013-03-03 18:51:00,
2013-03-03 12:56:00,31.8,13.3,29.95,ENE,57,1.0,2.0,46,0.00,,,0.00,Wunderground v.1.15,2013-03-03 18:56:00,
2013-03-03 13:02:00,32.1,14.1,29.95,NNW,338,1.0,2.0,47,0.00,,,0.00,Wunderground v.1.15,2013-03-03 19:02:00,
2013-03-03 13:07:00,32.0,13.5,29.95,ESE,114,1.0,4.0,46,0.00,,,0.00,Wunderground v.1.15,2013-03-03 19:07:00,
2013-03-03 13:12:00,31.7,12.8,29.95,ESE,112,2.0,3.0,45,0.00,,,0.00,Wunderground v.1.15,2013-03-03 19:12:00,
2013-03-03 13:17:00,31.7,13.7,29.94,SSW,210,2.0,3.0,47,0.00,,,0.00,Wunderground v.1.15,2013-03-03 19:17:00,
2013-03-03 13:22:00,31.8,13.3,29.94,WNW,284,1.0,2.0,46,0.00,,,0.00,Wunderground v.1.15,2013-03-03 19:22:00,
2013-03-03 13:28:00,31.9,12.9,29.94,ESE,107,2.0,2.0,45,0.00,,,0.00,Wunderground v.1.15,2013-03-03 19:28:00,
2013-03-03 13:33:00,32.1,14.1,29.93,NE,56,1.0,3.0,47,0.00,,,0.00,Wunderground v.1.15,2013-03-03 19:33:00,
2013-03-03 13:38:00,32.4,13.9,29.93,SSE,152,1.0,3.0,46,0.00,,,0.00,Wunderground v.1.15,2013-03-03 19:38:00,
2013-03-03 13:43:00,33.1,14.5,29.93,West,262,1.0,2.0,46,0.00,,,0.00,Wunderground v.1.15,2013-03-03 19:43:00,
2013-03-03 13:48:00,33.0,13.4,29.93,NE,49,1.0,4.0,44,0.00,,,0.00,Wunderground v.1.15,2013-03-03 19:48:00,
2013-03-03 13:54:00,33.3,15.2,29.92,East,89,1.0,2.0,47,0.00,,,0.00,Wunderground v.1.15,2013-03-03 19:54:00,
2013-03-03 13:59:00,33.3,13.7,29.92,ENE,70,2.0,4.0,44,0.00,,,0.00,Wunderground v.1.15,2013-03-03 19:59:00,
2013-03-03 14:04:00,33.2,14.1,29.92,NNE,33,2.0,4.0,45,0.00,,,0.00,Wunderground v.1.15,2013-03-03 20:04:00,
2013-03-03 14:09:00,33.6,14.5,29.92,West,269,2.0,4.0,45,0.00,,,0.00,Wunderground v.1.15,2013-03-03 20:09:00,
2013-03-03 14:14:00,33.9,14.3,29.91,NW,306,1.0,3.0,44,0.00,,,0.00,Wunderground v.1.15,2013-03-03 20:14:00,
2013-03-03 14:20:00,33.8,14.2,29.92,East,89,2.0,2.0,44,0.00,,,0.00,Wunderground v.1.15,2013-03-03 20:20:00,
2013-03-03 14:25:00,34.1,14.9,29.91,SSW,197,1.0,3.0,45,0.00,,,0.00,Wunderground v.1.15,2013-03-03 20:25:00,
2013-03-03 14:30:00,34.2,14.5,29.91,SE,145,1.0,1.0,44,0.00,,,0.00,Wunderground v.1.15,2013-03-03 20:30:00,
2013-03-03 14:35:00,34.3,13.6,29.91,West,267,2.0,4.0,42,0.00,,,0.00,Wunderground v.1.15,2013-03-03 20:35:00,
2013-03-03 14:40:00,34.3,14.1,29.91,SSE,150,1.0,1.0,43,0.00,,,0.00,Wunderground v.1.15,2013-03-03 20:40:00,
2013-03-03 14:46:00,34.1,13.9,29.91,SE,131,2.0,4.0,43,0.00,,,0.00,Wunderground v.1.15,2013-03-03 20:46:00,
2013-03-03 14:51:00,34.4,14.2,29.91,ENE,62,2.0,3.0,43,0.00,,,0.00,Wunderground v.1.15,2013-03-03 20:51:00,
2013-03-03 14:56:00,34.6,13.8,29.91,ENE,75,1.0,8.0,42,0.00,,,0.00,Wunderground v.1.15,2013-03-03 20:56:00,
2013-03-03 15:01:00,34.8,15.1,29.91,NNW,344,2.0,2.0,44,0.00,,,0.00,Wunderground v.1.15,2013-03-03 21:01:00,
2013-03-03 15:06:00,34.5,14.3,29.91,ENE,73,2.0,4.0,43,0.00,,,0.00,Wunderground v.1.15,2013-03-03 21:06:00,
2013-03-03 15:11:00,34.3,14.1,29.91,SE,134,2.0,3.0,43,0.00,,,0.00,Wunderground v.1.15,2013-03-03 21:11:00,
2013-03-03 15:16:00,34.3,14.1,29.91,East,79,1.0,3.0,43,0.00,,,0.00,Wunderground v.1.15,2013-03-03 21:16:00,
2013-03-03 15:21:00,34.3,14.1,29.91,ESE,110,1.0,2.0,43,0.00,,,0.00,Wunderground v.1.15,2013-03-03 21:21:00,
2013-03-03 15:26:00,34.2,14.5,29.91,ENE,63,2.0,3.0,44,0.00,,,0.00,Wunderground v.1.15,2013-03-03 21:26:00,
2013-03-03 15:31:00,33.9,13.7,29.90,NNE,29,2.0,5.0,43,0.00,,,0.00,Wunderground v.1.15,2013-03-03 21:31:00,
2013-03-03 15:36:00,33.7,13.5,29.90,ESE,109,2.0,5.0,43,0.00,,,0.00,Wunderground v.1.15,2013-03-03 21:36:00,
2013-03-03 15:41:00,33.8,14.2,29.90,ESE,107,2.0,2.0,44,0.00,,,0.00,Wunderground v.1.15,2013-03-03 21:41:00,
2013-03-03 15:46:00,34.0,13.8,29.90,ENE,69,1.0,4.0,43,0.00,,,0.00,Wunderground v.1.15,2013-03-03 21:46:00,
2013-03-03 15:51:00,34.1,13.9,29.90,NW,309,1.0,1.0,43,0.00,,,0.00,Wunderground v.1.15,2013-03-03 21:51:00,
2013-03-03 15:56:00,34.0,13.8,29.90,WSW,252,1.0,2.0,43,0.00,,,0.00,Wunderground v.1.15,2013-03-03 21:56:00,
2013-03-03 16:01:00,34.0,13.8,29.90,SE,139,1.0,1.0,43,0.00,,,0.00,Wunderground v.1.15,2013-03-03 22:01:00,
2013-03-03 16:06:00,34.1,14.4,29.90,SE,139,1.0,1.0,44,0.00,,,0.00,Wunderground v.1.15,2013-03-03 22:06:00,
2013-03-03 16:11:00,34.5,14.8,29.89,NNW,342,1.0,1.0,44,0.00,,,0.00,Wunderground v.1.15,2013-03-03 22:11:00,
2013-03-03 16:17:00,34.4,14.7,29.89,NE,48,0.0,2.0,44,0.00,,,0.00,Wunderground v.1.15,2013-03-03 22:17:00,
2013-03-03 16:22:00,34.1,13.9,29.89,SSE,160,1.0,1.0,43,0.00,,,0.00,Wunderground v.1.15,2013-03-03 22:22:00,
2013-03-03 16:27:00,33.9,14.8,29.89,NE,36,1.0,2.0,45,0.00,,,0.00,Wunderground v.1.15,2013-03-03 22:27:00,
2013-03-03 16:32:00,33.6,14.0,29.89,NNW,338,1.0,2.0,44,0.00,,,0.00,Wunderground v.1.15,2013-03-03 22:32:00,
2013-03-03 16:37:00,33.6,14.5,29.89,WNW,293,1.0,2.0,45,0.00,,,0.00,Wunderground v.1.15,2013-03-03 22:37:00,
2013-03-03 16:43:00,33.2,13.6,29.89,WNW,284,1.0,2.0,44,0.00,,,0.00,Wunderground v.1.15,2013-03-03 22:43:00,
2013-03-03 16:48:00,32.9,13.3,29.89,NE,53,1.0,2.0,44,0.00,,,0.00,Wunderground v.1.15,2013-03-03 22:48:00,
2013-03-03 16:53:00,32.5,13.0,29.89,ESE,108,1.0,1.0,44,0.00,,,0.00,Wunderground v.1.15,2013-03-03 22:53:00,
2013-03-03 16:58:00,32.3,12.8,29.89,ENE,65,1.0,5.0,44,0.00,,,0.00,Wunderground v.1.15,2013-03-03 22:58:00,
2013-03-03 17:03:00,32.0,12.5,29.89,SW,226,1.0,1.0,44,0.00,,,0.00,Wunderground v.1.15,2013-03-03 23:03:00,
2013-03-03 17:09:00,31.8,12.8,29.89,ESE,102,1.0,2.0,45,0.00,,,0.00,Wunderground v.1.15,2013-03-03 23:09:00,
2013-03-03 17:14:00,31.5,12.6,29.89,East,89,1.0,4.0,45,0.00,,,0.00,Wunderground v.1.15,2013-03-03 23:14:00,
2013-03-03 17:19:00,31.3,12.9,29.89,ESE,114,1.0,4.0,46,0.00,,,0.00,Wunderground v.1.15,2013-03-03 23:19:00,
2013-03-03 17:24:00,31.2,13.8,29.90,ESE,108,0.0,1.0,48,0.00,,,0.00,Wunderground v.1.15,2013-03-03 23:24:00,
2013-03-03 17:29:00,31.0,13.6,29.89,ENE,78,0.0,1.0,48,0.00,,,0.00,Wunderground v.1.15,2013-03-03 23:29:00,
2013-03-03 17:35:00,30.6,14.1,29.89,SSE,158,0.0,1.0,50,0.00,,,0.00,Wunderground v.1.15,2013-03-03 23:35:00,
2013-03-03 17:40:00,30.4,14.9,29.89,ENE,66,0.0,1.0,52,0.00,,,0.00,Wunderground v.1.15,2013-03-03 23:40:00,
2013-03-03 17:45:00,30.1,14.1,29.89,NNW,337,0.0,1.0,51,0.00,,,0.00,Wunderground v.1.15,2013-03-03 23:45:00,
2013-03-03 17:50:00,29.8,14.3,29.89,NE,36,0.0,1.0,52,0.00,,,0.00,Wunderground v.1.15,2013-03-03 23:50:00,
2013-03-03 17:55:00,29.6,14.5,29.89,ENE,77,0.0,1.0,53,0.00,,,0.00,Wunderground v.1.15,2013-03-03 23:55:00,
2013-03-03 18:01:00,29.2,15.0,29.89,ENE,78,0.0,1.0,55,0.00,,,0.00,Wunderground v.1.15,2013-03-04 00:01:00,
2013-03-03 18:06:00,28.9,14.7,29.89,NNE,32,1.0,1.0,55,0.00,,,0.00,Wunderground v.1.15,2013-03-04 00:06:00,
2013-03-03 18:11:00,28.7,15.4,29.89,NW,317,1.0,1.0,57,0.00,,,0.00,Wunderground v.1.15,2013-03-04 00:11:00,
2013-03-03 18:16:00,28.4,15.1,29.89,NNE,27,0.0,1.0,57,0.00,,,0.00,Wunderground v.1.15,2013-03-04 00:16:00,
2013-03-03 18:21:00,28.2,15.3,29.89,NE,56,1.0,1.0,58,0.00,,,0.00,Wunderground v.1.15,2013-03-04 00:21:00,
2013-03-03 18:27:00,28.0,15.5,29.89,ENE,64,1.0,1.0,59,0.00,,,0.00,Wunderground v.1.15,2013-03-04 00:27:00,
2013-03-03 18:32:00,27.8,15.3,29.89,NE,39,1.0,1.0,59,0.00,,,0.00,Wunderground v.1.15,2013-03-04 00:32:00,
2013-03-03 18:37:00,27.5,15.4,29.89,NE,39,0.0,1.0,60,0.00,,,0.00,Wunderground v.1.15,2013-03-04 00:37:00,
2013-03-03 18:42:00,27.3,15.2,29.90,NE,50,0.0,1.0,60,0.00,,,0.00,Wunderground v.1.15,2013-03-04 00:42:00,
2013-03-03 18:47:00,27.1,15.0,29.90,East,87,0.0,1.0,60,0.00,,,0.00,Wunderground v.1.15,2013-03-04 00:47:00,
2013-03-03 18:53:00,27.0,15.3,29.90,NE,53,1.0,2.0,61,0.00,,,0.00,Wunderground v.1.15,2013-03-04 00:53:00,
2013-03-03 18:58:00,26.9,15.2,29.90,NE,46,1.0,2.0,61,0.00,,,0.00,Wunderground v.1.15,2013-03-04 00:58:00,
2013-03-03 19:03:00,26.8,15.1,29.90,North,355,1.0,3.0,61,0.00,,,0.00,Wunderground v.1.15,2013-03-04 01:03:00,
2013-03-03 19:08:00,26.7,15.0,29.90,North,349,1.0,3.0,61,0.00,,,0.00,Wunderground v.1.15,2013-03-04 01:08:00,
2013-03-03 19:13:00,26.6,15.3,29.90,ENE,75,0.0,1.0,62,0.00,,,0.00,Wunderground v.1.15,2013-03-04 01:13:00,
2013-03-03 19:19:00,26.6,14.9,29.90,NE,46,1.0,2.0,61,0.00,,,0.00,Wunderground v.1.15,2013-03-04 01:19:00,
2013-03-03 19:24:00,26.6,14.9,29.90,NE,55,1.0,1.0,61,0.00,,,0.00,Wunderground v.1.15,2013-03-04 01:24:00,
2013-03-03 19:29:00,26.5,14.9,29.90,North,352,0.0,1.0,61,0.00,,,0.00,Wunderground v.1.15,2013-03-04 01:29:00,
2013-03-03 19:34:00,26.5,14.9,29.90,NE,44,0.0,1.0,61,0.00,,,0.00,Wunderground v.1.15,2013-03-04 01:34:00,
2013-03-03 19:39:00,26.5,14.9,29.90,ENE,63,1.0,2.0,61,0.00,,,0.00,Wunderground v.1.15,2013-03-04 01:39:00,
2013-03-03 19:45:00,26.5,14.9,29.89,NE,51,1.0,3.0,61,0.00,,,0.00,Wunderground v.1.15,2013-03-04 01:45:00,
2013-03-03 19:50:00,26.5,14.9,29.89,NNE,26,1.0,1.0,61,0.00,,,0.00,Wunderground v.1.15,2013-03-04 01:50:00,
2013-03-03 19:55:00,26.5,14.9,29.89,NW,325,1.0,3.0,61,0.00,,,0.00,Wunderground v.1.15,2013-03-04 01:55:00,
2013-03-03 20:00:00,26.6,15.3,29.89,East,94,1.0,1.0,62,0.00,,,0.00,Wunderground v.1.15,2013-03-04 02:00:00,
2013-03-03 20:05:00,26.7,15.0,29.89,NE,43,1.0,2.0,61,0.00,,,0.00,Wunderground v.1.15,2013-03-04 02:05:00,
2013-03-03 20:11:00,26.9,15.2,29.90,West,273,1.0,1.0,61,0.00,,,0.00,Wunderground v.1.15,2013-03-04 02:11:00,
2013-03-03 20:16:00,26.9,14.9,29.90,East,79,1.0,1.0,60,0.00,,,0.00,Wunderground v.1.15,2013-03-04 02:16:00,
2013-03-03 20:21:00,26.9,14.9,29.90,NNW,334,0.0,1.0,60,0.00,,,0.00,Wunderground v.1.15,2013-03-04 02:21:00,
2013-03-03 20:26:00,26.9,15.2,29.90,NE,49,1.0,1.0,61,0.00,,,0.00,Wunderground v.1.15,2013-03-04 02:26:00,
2013-03-03 20:31:00,26.9,15.2,29.90,NNE,16,1.0,1.0,61,0.00,,,0.00,Wunderground v.1.15,2013-03-04 02:31:00,
2013-03-03 20:37:00,26.9,14.5,29.90,ENE,70,1.0,2.0,59,0.00,,,0.00,Wunderground v.1.15,2013-03-04 02:37:00,
2013-03-03 20:42:00,27.0,14.6,29.90,NE,46,1.0,1.0,59,0.00,,,0.00,Wunderground v.1.15,2013-03-04 02:42:00,
2013-03-03 20:47:00,27.0,14.9,29.90,NE,48,1.0,2.0,60,0.00,,,0.00,Wunderground v.1.15,2013-03-04 02:47:00,
2013-03-03 20:52:00,27.0,14.9,29.90,ESE,105,1.0,3.0,60,0.00,,,0.00,Wunderground v.1.15,2013-03-04 02:52:00,
2013-03-03 20:57:00,27.0,14.6,29.89,NNE,26,1.0,3.0,59,0.00,,,0.00,Wunderground v.1.15,2013-03-04 02:57:00,
2013-03-03 21:02:00,27.1,14.7,29.89,NNE,33,1.0,3.0,59,0.00,,,0.00,Wunderground v.1.15,2013-03-04 03:02:00,
2013-03-03 21:07:00,27.2,14.8,29.89,East,85,1.0,3.0,59,0.00,,,0.00,Wunderground v.1.15,2013-03-04 03:07:00,
2013-03-03 21:12:00,27.3,14.8,29.89,ENE,58,1.0,1.0,59,0.00,,,0.00,Wunderground v.1.15,2013-03-04 03:12:00,
2013-03-03 21:17:00,27.4,14.1,29.89,WNW,297,1.0,3.0,57,0.00,,,0.00,Wunderground v.1.15,2013-03-04 03:17:00,
2013-03-03 21:22:00,27.4,14.1,29.89,NE,43,1.0,2.0,57,0.00,,,0.00,Wunderground v.1.15,2013-03-04 03:22:00,
2013-03-03 21:27:00,27.5,14.2,29.89,NE,42,1.0,2.0,57,0.00,,,0.00,Wunderground v.1.15,2013-03-04 03:27:00,
2013-03-03 21:33:00,27.5,14.6,29.89,North,8,1.0,1.0,58,0.00,,,0.00,Wunderground v.1.15,2013-03-04 03:33:00,
2013-03-03 21:38:00,27.5,14.2,29.89,North,355,1.0,4.0,57,0.00,,,0.00,Wunderground v.1.15,2013-03-04 03:38:00,
2013-03-03 21:43:00,27.4,14.5,29.89,WNW,300,1.0,2.0,58,0.00,,,0.00,Wunderground v.1.15,2013-03-04 03:43:00,
2013-03-03 21:48:00,27.4,14.1,29.88,ENE,57,2.0,4.0,57,0.00,,,0.00,Wunderground v.1.15,2013-03-04 03:48:00,
2013-03-03 21:53:00,27.4,14.5,29.88,East,80,2.0,2.0,58,0.00,,,0.00,Wunderground v.1.15,2013-03-04 03:53:00,
2013-03-03 21:59:00,27.3,14.5,29.88,ENE,74,1.0,3.0,58,0.00,,,0.00,Wunderground v.1.15,2013-03-04 03:59:00,
2013-03-03 22:04:00,27.2,14.8,29.88,East,84,1.0,2.0,59,0.00,,,0.00,Wunderground v.1.15,2013-03-04 04:04:00,
2013-03-03 22:09:00,27.2,14.8,29.88,ENE,74,1.0,2.0,59,0.00,,,0.00,Wunderground v.1.15,2013-03-04 04:09:00,
2013-03-03 22:14:00,27.1,14.7,29.88,ENE,78,1.0,2.0,59,0.00,,,0.00,Wunderground v.1.15,2013-03-04 04:14:00,
2013-03-03 22:19:00,27.1,14.7,29.87,East,93,2.0,4.0,59,0.00,,,0.00,Wunderground v.1.15,2013-03-04 04:19:00,
2013-03-03 22:25:00,27.0,14.9,29.88,North,8,1.0,2.0,60,0.00,,,0.00,Wunderground v.1.15,2013-03-04 04:25:00,
2013-03-03 22:30:00,26.9,14.9,29.88,North,359,1.0,1.0,60,0.00,,,0.00,Wunderground v.1.15,2013-03-04 04:30:00,
2013-03-03 22:35:00,26.9,14.9,29.88,ENE,60,1.0,1.0,60,0.00,,,0.00,Wunderground v.1.15,2013-03-04 04:35:00,
2013-03-03 22:40:00,26.8,15.1,29.87,SSE,166,1.0,1.0,61,0.00,,,0.00,Wunderground v.1.15,2013-03-04 04:40:00,
2013-03-03 22:46:00,26.7,14.7,29.87,ENE,65,1.0,5.0,60,0.00,,,0.00,Wunderground v.1.15,2013-03-04 04:46:00,
2013-03-03 22:52:00,26.8,15.5,29.87,WNW,293,1.0,1.0,62,0.00,,,0.00,Wunderground v.1.15,2013-03-04 04:52:00,
2013-03-03 22:57:00,26.8,14.8,29.87,NE,50,1.0,4.0,60,0.00,,,0.00,Wunderground v.1.15,2013-03-04 04:57:00,
2013-03-03 23:01:00,26.8,15.1,29.87,ESE,110,1.0,3.0,61,0.00,,,0.00,Wunderground v.1.15,2013-03-04 05:01:00,
2013-03-03 23:04:00,26.9,14.9,29.87,East,96,1.0,3.0,60,0.00,,,0.00,Wunderground v.1.15,2013-03-04 05:04:00,
2013-03-03 23:07:00,26.9,14.9,29.87,North,358,1.0,3.0,60,0.00,,,0.00,Wunderground v.1.15,2013-03-04 05:07:00,
2013-03-03 23:12:00,26.9,15.2,29.87,NNE,20,1.0,3.0,61,0.00,,,0.00,Wunderground v.1.15,2013-03-04 05:12:00,
2013-03-03 23:17:00,27.0,14.9,29.87,ENE,75,1.0,3.0,60,0.00,,,0.00,Wunderground v.1.15,2013-03-04 05:17:00,
2013-03-03 23:22:00,27.0,15.3,29.88,SE,125,1.0,4.0,61,0.00,,,0.00,Wunderground v.1.15,2013-03-04 05:22:00,
2013-03-03 23:27:00,27.0,14.9,29.88,North,11,1.0,4.0,60,0.00,,,0.00,Wunderground v.1.15,2013-03-04 05:27:00,
2013-03-03 23:32:00,27.0,14.9,29.88,SSE,168,1.0,2.0,60,0.00,,,0.00,Wunderground v.1.15,2013-03-04 05:32:00,
2013-03-03 23:37:00,27.0,14.9,29.88,NE,41,1.0,3.0,60,0.00,,,0.00,Wunderground v.1.15,2013-03-04 05:37:00,
2013-03-03 23:43:00,27.0,15.3,29.89,ESE,103,0.0,1.0,61,0.00,,,0.00,Wunderground v.1.15,2013-03-04 05:43:00,
2013-03-03 23:48:00,26.9,15.2,29.89,North,358,1.0,2.0,61,0.00,,,0.00,Wunderground v.1.15,2013-03-04 05:48:00,
2013-03-03 23:53:00,26.9,16.0,29.89,West,265,1.0,1.0,63,0.00,,,0.00,Wunderground v.1.15,2013-03-04 05:53:00,
2013-03-03 23:58:00,26.9,15.6,29.89,ENE,68,0.0,1.0,62,0.00,,,0.00,Wunderground v.1.15,2013-03-04 05:58:00,